GW6864 Weather Reports


Display with metric or nautical units.
time (UTC)temp
F
wind
direction
speed
MPH
gust
MPH
rain 1hr
in
rain 24hr
in
rain mn
in
humidity
%
barometer
mb
20260906021937 78 172 0.0 0.0 0.00 0.00 0.00 84 1014.7
20260906021432 79 172 0.0 0.0 0.00 0.00 0.00 85 1014.7
20260906020932 79 172 0.0 0.0 0.00 0.00 0.00 85 1014.7
20260906020426 79 172 0.0 0.0 0.00 0.00 0.00 84 1014.7
20260906015921 79 172 0.0 0.0 0.00 0.00 0.00 83 1014.2
20260906015421 79 172 0.0 0.0 0.00 0.00 0.00 83 1014.2
20260906014920 80 172 0.0 0.0 0.00 0.00 0.00 82 1014.4
20260906014420 80 172 0.0 0.0 0.00 0.00 0.00 82 1014.4
20260906013916 80 172 0.0 0.0 0.00 0.00 0.00 81 1014.4
20260906013412 80 172 0.0 0.0 0.00 0.00 0.00 82 1014.3
20260906012907 80 172 0.0 0.0 0.00 0.00 0.00 82 1014.3
20260906012402 80 172 0.0 0.0 0.00 0.00 0.00 81 1014.2
20260906011901 81 172 0.0 0.0 0.00 0.00 0.00 81 1014.2
20260906011356 81 172 0.0 0.0 0.00 0.00 0.00 81 1014.0
20260906010852 82 172 0.0 0.0 0.00 0.00 0.00 80 1014.1
20260906010348 82 172 0.0 0.0 0.00 0.00 0.00 79 1014.2
20260906005844 83 172 0.0 0.0 0.00 0.00 0.00 77 1014.1
20260906005343 83 172 0.0 0.0 0.00 0.00 0.00 76 1014.3
20260906004842 83 172 0.0 0.0 0.00 0.00 0.00 76 1014.4
20260906004341 83 173 0.0 0.0 0.00 0.00 0.00 77 1014.4
20260906003837 83 182 0.0 0.0 0.00 0.00 0.00 77 1014.5
20260906003332 84 127 1.0 1.0 0.00 0.00 0.00 77 1014.4
20260906002827 84 194 0.0 0.0 0.00 0.00 0.00 78 1014.2
20260906002327 84 194 0.0 0.0 0.00 0.00 0.00 77 1014.1
20260906001823 84 194 0.0 0.0 0.00 0.00 0.00 76 1014.3
20260906001318 85 194 0.0 0.0 0.00 0.00 0.00 75 1014.0
20260906000813 85 194 0.0 0.0 0.00 0.00 0.00 74 1014.5
20260906000307 86 194 0.0 0.0 0.00 0.00 0.00 73 1014.5
20260905235802 86 194 0.0 0.0 0.00 0.00 0.00 72 1014.4
20260905235306 87 194 0.0 0.0 0.00 0.00 0.00 71 1014.6
20260905234758 87 193 0.0 0.0 0.00 0.00 0.00 69 1014.4
20260905234252 87 193 0.0 0.0 0.00 0.00 0.00 68 1014.5
20260905233748 88 193 0.0 0.0 0.00 0.00 0.00 68 1014.5
20260905233247 88 193 0.0 0.0 0.00 0.00 0.00 66 1014.3
20260905232747 89 193 0.0 0.0 0.00 0.00 0.00 67 1014.3
20260905232243 89 193 0.0 0.0 0.00 0.00 0.00 66 1014.1
20260905231739 89 193 0.0 0.0 0.00 0.00 0.00 64 1014.0
20260905231234 89 193 0.0 0.0 0.00 0.00 0.00 66 1014.3
20260905230730 90 193 0.0 0.0 0.00 0.00 0.00 65 1014.3
20260905230228 90 193 0.0 0.0 0.00 0.00 0.00 63 1014.3
20260905225727 91 193 0.0 0.0 0.00 0.00 0.00 61 1014.2
20260905225223 91 193 0.0 0.0 0.00 0.00 0.00 59 1014.2
20260905224722 91 193 0.0 0.0 0.00 0.00 0.00 60 1014.2
20260905224217 91 194 0.0 0.0 0.00 0.00 0.00 59 1014.0
20260905223713 91 183 0.0 0.0 0.00 0.00 0.00 62 1014.1
20260905223210 91 183 0.0 0.0 0.00 0.00 0.00 64 1014.1
20260905222705 90 183 0.0 0.0 0.00 0.00 0.00 63 1014.2
20260905222205 91 183 0.0 0.0 0.00 0.00 0.00 64 1014.2
20260905221700 91 183 0.0 0.0 0.00 0.00 0.00 62 1014.2
20260905221157 91 183 0.0 0.0 0.00 0.00 0.00 60 1014.2
20260905220652 91 183 0.0 0.0 0.00 0.00 0.00 60 1014.2
20260905220149 93 183 1.0 1.0 0.00 0.00 0.00 58 1014.3
20260905215648 94 206 0.0 0.0 0.00 0.00 0.00 55 1014.2
20260905215144 93 144 1.0 1.0 0.00 0.00 0.00 53 1014.1
20260905214640 92 147 0.0 0.0 0.00 0.00 0.00 59 1014.2
20260905214141 91 148 1.0 1.0 0.00 0.00 0.00 60 1014.3
20260905213636 92 148 1.0 1.0 0.00 0.00 0.00 57 1014.1
20260905213131 92 147 0.0 0.0 0.00 0.00 0.00 57 1014.2
20260905212626 92 146 1.0 0.0 0.00 0.00 0.00 56 1014.5
20260905212126 93 185 1.0 1.0 0.00 0.00 0.00 55 1014.3
20260905211621 93 183 0.0 0.0 0.00 0.00 0.00 54 1014.3
20260905211116 93 170 1.0 1.0 0.00 0.00 0.00 53 1014.3
20260905210613 93 154 0.0 0.0 0.00 0.00 0.00 53 1014.5
20260905210107 94 166 0.0 0.0 0.00 0.00 0.00 52 1014.3
20260905205606 95 163 1.0 1.0 0.00 0.00 0.00 52 1014.5
20260905205106 95 211 2.0 2.0 0.00 0.00 0.00 51 1014.6
20260905204601 96 195 2.0 2.0 0.00 0.00 0.00 49 1014.6
20260905204056 97 35 3.0 3.0 0.00 0.00 0.00 47 1014.6
20260905203555 96 154 0.0 1.0 0.00 0.00 0.00 49 1014.7
20260905203051 96 194 1.0 2.0 0.00 0.00 0.00 49 1014.6
20260905202546 97 188 0.0 0.0 0.00 0.00 0.00 48 1014.5
20260905202042 96 207 1.0 1.0 0.00 0.00 0.00 49 1014.7
20260905201537 95 202 0.0 0.0 0.00 0.00 0.00 51 1014.5
20260905201037 96 168 0.0 0.0 0.00 0.00 0.00 48 1014.7
20260905200532 97 217 1.0 1.0 0.00 0.00 0.00 49 1014.6
20260905200032 96 146 1.0 1.0 0.00 0.00 0.00 50 1014.8
20260905195526 96 27 1.0 1.0 0.00 0.00 0.00 50 1014.7
20260905195021 96 42 2.0 2.0 0.00 0.00 0.00 51 1014.9
20260905194515 96 153 1.0 1.0 0.00 0.00 0.00 50 1015.1
20260905194016 96 30 2.0 2.0 0.00 0.00 0.00 49 1015.2
20260905193515 97 195 2.0 2.0 0.00 0.00 0.00 50 1015.3
20260905193011 97 250 2.0 2.0 0.00 0.00 0.00 50 1015.5
20260905192506 97 223 2.0 2.0 0.00 0.00 0.00 49 1015.5
20260905192002 98 234 2.0 2.0 0.00 0.00 0.00 48 1015.8
20260905191501 98 197 3.0 4.0 0.00 0.00 0.00 46 1015.9
20260905191000 98 192 1.0 1.0 0.00 0.00 0.00 48 1015.8
20260905190458 98 61 2.0 2.0 0.00 0.00 0.00 48 1015.7
20260905185957 98 241 1.0 2.0 0.00 0.00 0.00 48 1016.0
20260905185452 97 310 2.0 2.0 0.00 0.00 0.00 51 1015.8
20260905184951 97 182 1.0 1.0 0.00 0.00 0.00 50 1015.8
20260905184446 96 196 2.0 2.0 0.00 0.00 0.00 51 1015.7
20260905183945 96 18 2.0 2.0 0.00 0.00 0.00 50 1015.6
20260905183445 97 55 3.0 3.0 0.00 0.00 0.00 50 1015.9
20260905182940 96 108 1.0 2.0 0.00 0.00 0.00 51 1015.7
20260905182439 96 198 1.0 1.0 0.00 0.00 0.00 54 1015.8
20260905181935 96 40 2.0 2.0 0.00 0.00 0.00 53 1016.2
20260905181435 96 207 0.0 0.0 0.00 0.00 0.00 51 1016.3
20260905180934 95 234 1.0 2.0 0.00 0.00 0.00 53 1016.5
20260905180429 94 206 1.0 1.0 0.00 0.00 0.00 55 1016.4
20260905175924 94 208 3.0 3.0 0.00 0.00 0.00 53 1016.6
20260905175423 93 197 1.0 1.0 0.00 0.00 0.00 58 1016.4
20260905174918 94 126 3.0 3.0 0.00 0.00 0.00 55 1016.5
20260905174414 95 49 2.0 2.0 0.00 0.00 0.00 55 1016.6
20260905173910 94 278 2.0 2.0 0.00 0.00 0.00 55 1016.6
20260905173406 95 277 2.0 2.0 0.00 0.00 0.00 54 1016.7
20260905172901 95 201 1.0 1.0 0.00 0.00 0.00 57 1016.7
20260905172359 94 149 3.0 3.0 0.00 0.00 0.00 55 1016.8
20260905171854 94 114 1.0 1.0 0.00 0.00 0.00 57 1017.0
20260905171351 94 203 2.0 2.0 0.00 0.00 0.00 58 1016.8
20260905170848 94 193 1.0 1.0 0.00 0.00 0.00 57 1017.2
20260905170344 94 187 1.0 1.0 0.00 0.00 0.00 58 1017.0
20260905165843 94 183 1.0 1.0 0.00 0.00 0.00 55 1017.1
20260905165338 93 171 1.0 2.0 0.00 0.00 0.00 60 1017.0
20260905164838 93 209 2.0 3.0 0.00 0.00 0.00 56 1017.0
20260905164333 93 132 1.0 1.0 0.00 0.00 0.00 56 1017.1
20260905163828 94 108 2.0 2.0 0.00 0.00 0.00 56 1017.0
20260905163325 94 168 1.0 1.0 0.00 0.00 0.00 56 1017.3
20260905162821 94 161 2.0 2.0 0.00 0.00 0.00 55 1017.1
20260905162321 93 214 1.0 1.0 0.00 0.00 0.00 58 1017.2
20260905161821 92 55 1.0 1.0 0.00 0.00 0.00 59 1017.5
20260905161320 92 193 1.0 1.0 0.00 0.00 0.00 58 1017.3
20260905160818 93 62 1.0 1.0 0.00 0.00 0.00 57 1017.4
20260905160313 93 53 1.0 1.0 0.00 0.00 0.00 57 1017.4
20260905155808 93 303 2.0 2.0 0.00 0.00 0.00 55 1017.4
20260905155306 93 3 2.0 2.0 0.00 0.00 0.00 55 1017.2
20260905154801 93 219 1.0 2.0 0.00 0.00 0.00 58 1017.2
20260905154257 92 203 1.0 1.0 0.00 0.00 0.00 56 1017.1
20260905153752 92 221 1.0 1.0 0.00 0.00 0.00 57 1017.4
20260905153248 91 301 3.0 3.0 0.00 0.00 0.00 58 1017.2
20260905152743 92 189 3.0 3.0 0.00 0.00 0.00 57 1017.3
20260905152242 92 194 1.0 1.0 0.00 0.00 0.00 60 1017.5
20260905151741 91 70 1.0 1.0 0.00 0.00 0.00 60 1017.4
20260905151238 91 99 1.0 1.0 0.00 0.00 0.00 61 1017.4
20260905150737 91 128 1.0 1.0 0.00 0.00 0.00 62 1017.3
20260905150237 91 128 1.0 1.0 0.00 0.00 0.00 61 1017.4
20260905145735 92 212 1.0 1.0 0.00 0.00 0.00 57 1017.6
20260905145230 92 132 1.0 1.0 0.00 0.00 0.00 58 1017.4
20260905144729 90 188 1.0 1.0 0.00 0.00 0.00 63 1017.5
20260905144224 89 197 0.0 0.0 0.00 0.00 0.00 66 1017.5
20260905143723 87 196 2.0 2.0 0.00 0.00 0.00 67 1017.5
20260905143223 87 192 2.0 2.0 0.00 0.00 0.00 68 1017.4
20260905142721 87 183 1.0 1.0 0.00 0.00 0.00 72 1017.5
20260905142216 87 179 1.0 1.0 0.00 0.00 0.00 69 1017.5
20260905141712 86 182 1.0 1.0 0.00 0.00 0.00 70 1017.5
20260905141208 85 140 1.0 0.0 0.00 0.00 0.00 73 1017.5
20260905140703 84 179 1.0 1.0 0.00 0.00 0.00 73 1017.6
20260905140203 82 179 0.0 0.0 0.00 0.00 0.00 76 1017.4
20260905135657 81 177 2.0 2.0 0.00 0.00 0.00 79 1017.4
20260905135154 80 192 1.0 1.0 0.00 0.00 0.00 82 1017.5
20260905134653 78 212 0.0 0.0 0.00 0.00 0.00 86 1017.5
20260905134152 78 212 1.0 1.0 0.00 0.00 0.00 86 1017.4
20260905133648 77 212 0.0 0.0 0.00 0.00 0.00 86 1017.7
20260905133148 77 213 2.0 2.0 0.00 0.00 0.00 85 1017.8
20260905132647 77 171 0.0 0.0 0.00 0.00 0.00 88 1017.8
20260905132143 77 172 0.0 0.0 0.00 0.00 0.00 89 1018.0
20260905131638 76 172 0.0 0.0 0.00 0.00 0.00 90 1018.0
20260905131138 75 172 0.0 0.0 0.00 0.00 0.00 91 1017.8
20260905130633 75 132 0.0 0.0 0.00 0.00 0.00 92 1018.1
20260905130133 75 107 1.0 1.0 0.00 0.00 0.00 91 1018.1
20260905125632 74 140 0.0 0.0 0.00 0.00 0.00 92 1017.9
20260905125128 74 140 0.0 0.0 0.00 0.00 0.00 93 1018.0
20260905124624 74 149 0.0 0.0 0.00 0.00 0.00 94 1018.0
20260905124120 73 149 1.0 1.0 0.00 0.00 0.00 94 1018.0
20260905123615 73 149 0.0 0.0 0.00 0.00 0.00 94 1017.9
20260905123113 73 150 1.0 1.0 0.00 0.00 0.00 95 1017.8
20260905122612 73 151 0.0 0.0 0.00 0.00 0.00 95 1017.8
20260905122112 73 150 0.0 0.0 0.00 0.00 0.00 95 1017.7
20260905121607 73 150 0.0 1.0 0.00 0.00 0.00 96 1017.8
20260905121102 73 151 0.0 0.0 0.00 0.00 0.00 96 1017.7
20260905120601 72 153 0.0 0.0 0.00 0.00 0.00 96 1017.6
20260905120057 72 153 0.0 0.0 0.00 0.00 0.00 96 1017.6
20260905115555 72 153 0.0 0.0 0.00 0.00 0.00 96 1017.4
20260905115050 72 153 0.0 0.0 0.00 0.00 0.00 97 1017.5
20260905114549 72 153 0.0 0.0 0.00 0.00 0.00 97 1017.4
20260905114049 72 152 0.0 0.0 0.00 0.00 0.00 97 1017.2
20260905113544 72 152 0.0 0.0 0.00 0.00 0.00 97 1017.3
20260905113039 72 152 0.0 0.0 0.00 0.00 0.00 97 1017.1
20260905112535 72 152 0.0 0.0 0.00 0.00 0.00 97 1017.1
20260905112030 71 152 0.0 0.0 0.00 0.00 0.00 97 1017.0
20260905111524 71 152 0.0 0.0 0.00 0.00 0.00 97 1017.2
20260905111024 71 152 0.0 0.0 0.00 0.00 0.00 97 1016.9
20260905110523 71 152 0.0 0.0 0.00 0.00 0.00 97 1016.8
20260905110019 71 152 0.0 0.0 0.00 0.00 0.00 97 1016.9
20260905105513 71 152 0.0 0.0 0.00 0.00 0.00 97 1016.9
20260905105012 71 152 0.0 0.0 0.00 0.00 0.00 97 1016.8
20260905104508 71 152 0.0 0.0 0.00 0.00 0.00 97 1016.7
20260905104008 71 152 0.0 0.0 0.00 0.00 0.00 97 1016.8
20260905103503 71 152 0.0 0.0 0.00 0.00 0.00 97 1016.6
20260905102959 71 152 0.0 0.0 0.00 0.00 0.00 97 1016.6
20260905102455 71 155 0.0 0.0 0.00 0.00 0.00 97 1016.6
20260905101950 71 155 0.0 0.0 0.00 0.00 0.00 96 1016.4
20260905101449 71 155 0.0 0.0 0.00 0.00 0.00 96 1016.5
20260905100948 71 155 0.0 0.0 0.00 0.00 0.00 96 1016.3
20260905100444 71 155 0.0 0.0 0.00 0.00 0.00 96 1016.4
20260905095943 71 155 0.0 0.0 0.00 0.00 0.00 96 1016.7
20260905095443 72 155 0.0 0.0 0.00 0.00 0.00 96 1016.6
20260905094939 72 155 0.0 0.0 0.00 0.00 0.00 96 1016.5
20260905094434 72 155 0.0 0.0 0.00 0.00 0.00 96 1016.4
20260905093933 72 155 0.0 0.0 0.00 0.00 0.00 96 1016.6
20260905093428 71 155 0.0 0.0 0.00 0.00 0.00 96 1016.5
20260905092924 72 155 0.0 0.0 0.00 0.00 0.00 96 1016.5
20260905092419 72 155 0.0 0.0 0.00 0.00 0.00 96 1016.4
20260905091915 72 155 0.0 0.0 0.00 0.00 0.00 96 1016.4
20260905091414 72 155 0.0 0.0 0.00 0.00 0.00 95 1016.4
20260905090914 72 155 0.0 0.0 0.00 0.00 0.00 95 1016.5
20260905090409 72 155 0.0 0.0 0.00 0.00 0.00 95 1016.3
20260905085908 72 144 0.0 0.0 0.00 0.00 0.00 95 1016.2
20260905085408 72 144 0.0 0.0 0.00 0.00 0.00 95 1016.5
20260905084904 72 144 0.0 0.0 0.00 0.00 0.00 95 1016.3
20260905084403 72 144 0.0 0.0 0.00 0.00 0.00 95 1016.2
20260905083858 72 144 0.0 0.0 0.00 0.00 0.00 95 1016.3
20260905083354 72 144 0.0 0.0 0.00 0.00 0.00 95 1016.3
20260905082849 72 144 0.0 0.0 0.00 0.00 0.00 94 1016.0
20260905082345 72 144 0.0 0.0 0.00 0.00 0.00 94 1016.3
20260905081840 72 144 0.0 0.0 0.00 0.00 0.00 95 1016.2
20260905081335 72 144 0.0 0.0 0.00 0.00 0.00 94 1016.3
20260905080834 72 144 0.0 0.0 0.00 0.00 0.00 94 1016.5
20260905080329 73 144 0.0 0.0 0.00 0.00 0.00 94 1016.4
20260905075828 73 144 0.0 0.0 0.00 0.00 0.00 93 1016.3
20260905075328 73 144 0.0 0.0 0.00 0.00 0.00 93 1016.5
20260905074827 73 144 0.0 0.0 0.00 0.00 0.00 93 1016.5
20260905074323 73 144 0.0 0.0 0.00 0.00 0.00 93 1016.6
20260905073818 73 144 0.0 0.0 0.00 0.00 0.00 93 1016.5
20260905073314 73 142 0.0 0.0 0.00 0.00 0.00 93 1016.5
20260905072814 73 142 0.0 0.0 0.00 0.00 0.00 92 1016.7
20260905072309 73 142 0.0 0.0 0.00 0.00 0.00 92 1016.8
20260905071805 74 142 0.0 0.0 0.00 0.00 0.00 92 1016.9
20260905071301 74 142 0.0 0.0 0.00 0.00 0.00 92 1016.9
20260905070755 74 142 0.0 0.0 0.00 0.00 0.00 92 1016.8
20260905070253 74 142 0.0 0.0 0.00 0.00 0.00 91 1016.9
20260905065751 74 145 1.0 1.0 0.00 0.00 0.00 92 1016.9
20260905065250 74 145 0.0 0.0 0.00 0.00 0.00 93 1017.0
20260905064746 74 145 0.0 0.0 0.00 0.00 0.00 92 1016.9
20260905064241 74 144 0.0 0.0 0.00 0.00 0.00 92 1017.1
20260905063739 74 196 0.0 0.0 0.00 0.00 0.00 92 1017.1
20260905063236 74 196 0.0 0.0 0.00 0.00 0.00 92 1017.1
20260905062731 75 196 0.0 0.0 0.00 0.00 0.00 91 1017.1
20260905062231 75 197 0.0 0.0 0.00 0.00 0.00 91 1017.2
20260905061731 75 197 0.0 0.0 0.00 0.00 0.00 90 1017.3
20260905061227 75 199 0.0 0.0 0.00 0.00 0.00 91 1017.2
20260905060726 75 206 0.0 0.0 0.00 0.00 0.00 92 1017.4
20260905060223 75 188 0.0 0.0 0.00 0.00 0.00 92 1017.1
20260905055721 75 188 0.0 0.0 0.00 0.00 0.00 93 1017.1
20260905055217 75 188 0.0 0.0 0.00 0.00 0.00 93 1017.3
20260905054712 75 188 0.0 0.0 0.00 0.00 0.00 92 1017.5
20260905054209 75 188 1.0 1.0 0.00 0.00 0.00 92 1017.5
20260905053707 75 188 0.0 0.0 0.00 0.00 0.00 92 1017.5
20260905053203 75 188 0.0 0.0 0.00 0.00 0.00 92 1017.4
20260905052702 75 188 0.0 0.0 0.00 0.00 0.00 91 1017.3
20260905052157 75 188 0.0 0.0 0.00 0.00 0.00 91 1017.3
20260905051652 76 188 0.0 0.0 0.00 0.00 0.00 91 1017.3
20260905051149 76 188 0.0 0.0 0.00 0.00 0.00 91 1017.2
20260905050645 76 188 0.0 0.0 0.00 0.00 0.00 90 1017.4
20260905050141 76 188 0.0 0.0 0.00 0.00 0.00 90 1017.4
20260905045641 76 188 0.0 0.0 0.00 0.00 0.00 89 1017.2
20260905045137 76 188 0.0 0.0 0.00 0.00 0.00 89 1017.4
20260905044636 76 188 0.0 0.0 0.00 0.00 0.00 89 1017.5
20260905044131 77 188 0.0 0.0 0.00 0.00 0.00 88 1017.3
20260905043630 77 188 0.0 0.0 0.00 0.00 0.00 88 1017.4
20260905043125 77 188 0.0 0.0 0.00 0.00 0.00 87 1017.4
20260905042624 77 188 0.0 0.0 0.00 0.00 0.00 87 1017.2
20260905042119 77 188 0.0 0.0 0.00 0.00 0.00 87 1017.3
20260905041615 77 188 0.0 0.0 0.00 0.00 0.00 88 1017.1
20260905041110 77 188 0.0 0.0 0.00 0.00 0.00 88 1017.3
20260905040610 77 188 0.0 0.0 0.00 0.00 0.00 88 1017.4
20260905040109 77 188 0.0 0.0 0.00 0.00 0.00 88 1017.5
20260905035604 77 188 0.0 0.0 0.00 0.00 0.00 87 1017.2
20260905035101 77 188 0.0 0.0 0.00 0.00 0.00 87 1017.3
20260905034557 77 188 0.0 0.0 0.00 0.00 0.00 86 1017.3
20260905034056 78 188 0.0 0.0 0.00 0.00 0.00 85 1017.3
20260905033550 78 188 0.0 0.0 0.00 0.00 0.00 85 1017.5
20260905033047 78 188 0.0 0.0 0.00 0.00 0.00 85 1017.2
20260905032546 78 188 0.0 0.0 0.00 0.00 0.00 85 1017.4
20260905032047 78 188 0.0 0.0 0.00 0.00 0.00 85 1017.2
20260905031543 78 188 0.0 0.0 0.00 0.00 0.00 84 1017.2
20260905031042 79 188 1.0 1.0 0.00 0.00 0.00 83 1017.2
20260905030537 79 188 0.0 0.0 0.00 0.00 0.00 82 1017.1
20260905030037 79 130 1.0 2.0 0.00 0.00 0.00 83 1017.2
20260905025533 78 187 1.0 1.0 0.00 0.00 0.00 84 1017.2
20260905025029 78 193 1.0 1.0 0.00 0.00 0.00 84 1017.2
20260905024524 78 192 1.0 1.0 0.00 0.00 0.00 84 1017.2
20260905024019 79 192 0.0 0.0 0.00 0.00 0.00 83 1017.5
20260905023515 79 192 1.0 1.0 0.00 0.00 0.00 83 1017.5
20260905023015 79 182 0.0 0.0 0.00 0.00 0.00 82 1017.3
20260905022509 79 182 0.0 0.0 0.00 0.00 0.00 82 1017.6